#timestamp,LO_Frequency,Hit,StdDev 
1627830015.1,286046998.4,N
1627830035.9,286047000.2,N
1627830055.7,286046998.1,N
1627830075.5,286047004.3,N
1627830095.4,286047002.5,N
1627830115.2,286047000.0,N
1627830135.1,286046999.8,N
1627830136.0,286046999.8,N
1627830155.8,286047002.5,N
1627830175.6,286047003.4,N
1627830195.5,286047004.3,N
1627830215.3,286047005.1,N
1627830235.2,286047007.4,N
1627830255.9,286047006.3,N
1627830275.7,286047007.0,N
1627830295.6,286047006.8,N
1627830315.4,286047003.4,N
1627830335.2,286047003.0,N
1627830355.1,286047003.0,N
1627830356.0,286047003.0,N
1627830375.8,286047004.1,N
1627830395.7,286047004.9,N
1627830415.5,286047007.6,N
1627830435.3,286047006.9,N
1627830455.2,286047008.1,N
1627830475.0,286047006.5,N
1627830475.9,286047006.5,N
1627830495.8,286047006.8,N
1627830515.6,286047005.5,N
1627830535.4,286047005.0,N
1627830555.3,286047005.4,N
1627830575.1,286047004.8,N
1627830595.8,286047007.3,N
1627830615.7,286047006.7,N
1627830635.5,286047006.1,N
1627830655.4,286047007.6,Y
1627830675.2,286047001.4,P
1627830695.0,286047003.8,N
1627830695.9,286047003.8,N
1627830715.8,286047001.4,N
1627830735.6,286047003.9,N
1627830755.4,286047005.3,Y
1627830775.3,286047002.7,P
1627830795.1,286047001.9,P
1627830815.9,286047000.8,N
1627830835.7,286046999.7,N
1627830855.5,286046998.1,N
1627830875.4,286046998.4,N
1627830895.2,286046999.3,N
1627830915.0,286046997.8,N
1627830916.0,286046997.8,N
1627830935.8,286046994.1,Y
1627830955.6,286046994.0,P
1627830975.5,286046992.4,N
1627830995.3,286046996.3,N
1627831015.1,286046996.7,N
1627831035.9,286046999.2,N
1627831055.7,286047000.3,N
1627831075.6,286047002.7,N
1627831095.4,286047004.2,N
1627831115.2,286047004.4,N
1627831135.1,286047006.0,N
1627831136.0,286047006.0,N
1627831155.8,286047003.7,N
1627831175.6,286047003.1,N
1627831195.5,286047004.0,N
1627831215.3,286047003.6,N
1627831235.2,286047003.9,N
1627831255.9,286047004.4,N
1627831275.7,286047004.0,N
1627831295.6,286047001.8,N
1627831315.4,286047002.1,N
1627831335.2,286047001.5,N
1627831355.1,286047001.3,N
1627831356.0,286047001.3,N
1627831375.8,286047003.1,N
1627831395.7,286047006.0,N
1627831415.5,286047003.1,N
1627831435.3,286047005.2,N
1627831455.2,286047004.7,N
1627831475.0,286047004.9,N
1627831475.9,286047004.9,N
1627831495.8,286047003.5,N
1627831515.6,286047003.2,N
1627831535.4,286047003.6,N
1627831555.3,286047002.3,N
1627831575.1,286046996.9,N
1627831595.8,286046999.8,N
1627831615.7,286047002.1,N
1627831635.5,286047004.4,N
1627831655.4,286047004.3,N
1627831675.2,286047005.5,N
1627831695.0,286047003.8,N
1627831695.9,286047003.8,N
1627831715.8,286047002.7,N
1627831735.6,286047004.0,N
1627831755.4,286047001.7,N
1627831775.3,286047002.7,N
1627831795.1,286046997.6,N
1627831815.9,286046991.2,Y
1627831835.7,286046990.8,P
1627831855.5,286046987.3,N
1627831875.4,286046986.2,N
1627831895.2,286046987.5,N
1627831915.0,286046991.0,N
1627831915.9,286046991.0,N
1627831935.8,286046990.7,N
1627831955.6,286046994.3,N
1627831975.5,286046993.2,N
1627831995.3,286046994.7,N
1627832015.1,286046992.9,N
1627832035.9,286046988.7,N
1627832055.7,286046988.9,N
1627832075.6,286046989.7,N
1627832095.4,286046989.4,N
1627832115.2,286046988.0,Y
1627832135.1,286046991.5,P
1627832136.0,286046991.5,P
1627832155.8,286046990.0,P
1627832175.6,286046991.2,Y
1627832195.5,286047002.3,P
1627832215.3,286047007.4,N
1627832235.2,286047003.3,N
1627832255.9,286047006.8,N
1627832275.7,286047011.7,N
1627832295.6,286047017.1,N
1627832315.4,286047014.2,N
1627832335.2,286047015.1,N
1627832355.1,286047020.0,N
1627832356.0,286047020.0,N
1627832375.8,286047020.1,N
1627832395.7,286047020.9,N
1627832415.5,286047023.3,N
1627832435.3,286047023.9,N
1627832455.2,286047028.3,Y
1627832475.0,286047014.7,P
1627832475.9,286047014.7,P
1627832495.7,286047014.8,P
1627832515.6,286047013.6,Y
1627832535.4,286046994.0,P
1627832555.3,286046995.2,N
1627832575.1,286046997.5,N
1627832595.8,286046996.3,N
1627832615.7,286046997.9,N
1627832635.5,286046996.7,N
1627832655.4,286046994.6,N
1627832675.2,286046996.0,N
1627832695.0,286046994.0,N
1627832695.9,286046994.0,N
1627832715.8,286046987.4,N
1627832735.6,286046983.6,N
1627832755.4,286046983.6,N
1627832775.3,286046984.5,N
1627832795.1,286046983.8,N
1627832815.9,286046982.8,N
1627832835.7,286046982.5,N
1627832855.5,286046988.0,N
1627832875.4,286046984.6,N
1627832895.2,286046977.5,N
1627832915.1,286046983.3,N
1627832916.0,286046983.3,N
1627832935.8,286046980.9,N
1627832955.6,286046984.6,N
1627832975.5,286046982.5,N
1627832995.3,286046982.6,N
1627833015.1,286046982.7,N
1627833035.9,286046983.1,N
1627833055.7,286046986.7,N
1627833075.6,286046985.0,N
1627833095.4,286046989.4,N
1627833115.2,286046986.7,N
1627833135.1,286046985.3,N
1627833136.0,286046985.3,N
1627833155.8,286046987.3,N
1627833175.6,286046986.9,N
1627833195.5,286046991.6,N
1627833215.3,286046987.7,Y
1627833235.2,286047004.3,P
1627833255.0,286046999.4,N
1627833255.9,286046999.4,N
1627833275.7,286047000.9,N
1627833295.6,286047002.9,N
1627833315.4,286047004.1,N
1627833335.3,286047007.9,N
1627833355.1,286047008.2,N
1627833356.0,286047008.2,N
1627833375.8,286047010.8,N
1627833395.7,286047007.7,N
1627833415.5,286047015.4,N
1627833435.4,286047016.4,N
1627833455.2,286047020.6,N
1627833475.0,286047022.3,N
1627833475.9,286047022.3,N
1627833495.8,286047024.2,N
1627833515.6,286047026.9,N
1627833535.4,286047028.4,N
1627833555.3,286047028.5,N
1627833575.1,286047026.0,N
1627833595.9,286047027.1,N
